Location: Home
(42.5358°N, 72.7383°W)
Time: 16:59:29
(UTC-04:00)

Kosmos-337 - Pass Details

Date: 06 July 2022
Orbit: 1467 x 1552 km, 74.0° (Epoch: 18 August)

Event Time Altitude Azimuth Distance (km) Brightness Sun altitude
Rises 02:43:48 0° 334° (NNW) 4,730 ? -20.2°
Reaches altitude 10° 02:46:58 10° 328° (NNW) 3,740 ? -19.9°
Maximum altitude 02:55:17 42° 262° (W) 2,090 ? -19.2°
Enters shadow 02:59:36 27° 213° (SSW) 2,627 ? -18.8°
